THOR ABLESTAR DEB, 653

Orbit data source: Space-Track

THOR ABLESTAR DEB, 653 is space debris in LEO originally from a launch on Thu, 29 Jun 1961 UTC launched from the Air Force Eastern Test Range (AFETR). Debris objects in space refer to the collection of defunct objects orbiting the Earth. Examples of debris include non-operational satellites, rocket bodies, and fragments generated from explosions, collisions, or faulty payload assembly.

Loading next visibility...
Identifier
653, 1961-015HE
Orbit
LEO
Country
Flag of USUS
Related business
Manufacturer
Unknown
Mission
Spacecraft
Bus & Motor
Unknown
Mass
Unknown
Launch date (UTC)
1961-06-29 (64 years ago)
Launch vehicle
Unknown
Launch site
Air Force Eastern Test Range (AFETR)
Object type
Payload
Rocket body
Debris
Shape & HBR
Unknown shape, 0.1 m
Radar Cross Section
Small (<0.1 m²)

Expand to show TLE details & history
Last TLE update: 2 days ago

TLE from 2 days ago
0 THOR ABLESTAR DEB
1 00653U 61015HE  25340.21463395  .00001012  00000-0  11290-2 0  9993
2 00653  67.4498 252.0815 0153770 133.3606  18.9321 13.70075623191449
Epoch: 2025-12-06T05:09Z
TLE epoch observation values (Epoch: 2025-12-06T05:09:04.373Z)
Latitude
24.94542°
Longitude
-91.50947°
Altitude
894.388 km
Speed
7.461 km/s
True Right ascension
04h 04m 01s
True Declination
24° 48' 60"
Sunlit
Object was in full shadow at epoch
Visualization orbit readout
Latitude
Unknown
Longitude
Unknown
Altitude
Unknown
Speed
Unknown
Apparent Right ascension
Unknown
Apparent Declination
Unknown
Sunlit
N/A
Visualization observer readout
Local Sidereal Time
21:46:35
Azimuth
Unknown
Elevation
Unknown
Doppler factor
Unknown
Orbital elements
Apogee altitude
1,111.053 km
Perigee altitude
884.219 km
Semi-major axis
7,375.773 km
Eccentricity
0.01538
Inclination
67.4498°
RAAN
252.0815°
Arg. of periapsis
133.3606°
True anomaly
19.51437°
Mean anomaly
18.9321°
Eccentric anomaly
19.22217°
Mean motion
3.42635 °/min
Orbital period
105.07 mins
BSTAR
0.001129
Loading maneuver chart data...
Computing Atmospheric mass density...

Documentation

Showing up to 5 results
|